User: anonymous   Login
Location: Bangkok
(13.7500°N, 100.5170°E)
Time: 08:59:55
(UTC+07:00)
Language:

Cosmos 1898 Rocket - Orbit

View from above orbital plane
View from above orbital plane
View from above satellite
View from above satellite

Ground track
Ground track

The orbit data is extracted from the following two-line orbital elements,

1 18586U 87098B   15147.57673745  .00000082  00000-0  36639-4 0  9993
2 18586 074.0074 239.1955 0019975 114.4444 346.0310 14.36625976439427
Epoch (UTC): 27 May 2015 13:50:30
Eccentricity: 0.0019975
inclination: 74.0074°
perigee height: 755 km
apogee height: 784 km
right ascension of ascending node: 239.1955°
argument of perigee: 114.4444°
revolutions per day: 14.36625976
mean anomaly at epoch: 346.0310°
orbit number at epoch: 43942

The dashed part of the orbit path shows where the satellite is in the earth's shadow,  

DLR